New York Downtown Manhattan/w, NY

9:29 PM EST on December 13, 2019 (GMT -0500)
New York Downtown Manhattan/w

Weather History for KJRB - August, 2019

Change the Weather History Date:

Friday, August 9, 2019

  Actual Average (WUND) Record (WUND)
Temperature  
Mean Temperature 79 °F -  
Max Temperature 87 °F - - (-1)
Min Temperature 71 °F - - (-1)
Cooling Degree Days 14    
Growing Degree Days 29 (Base 50)    
Moisture  
Dew Point 63 °F    
Average Humidity 61    
Maximum Humidity 84    
Minimum Humidity 43    
Precipitation  
Precipitation 0.00 in - - ()
Sea Level Pressure  
Sea Level Pressure 29.76 in    
Wind  
Wind Speed 4 mph (WSW)    
Max Wind Speed 9 mph    
Max Gust Speed -    
Visibility 10 miles    
Events      
Averages and records for this station are not official NWS values.
T = Trace of Precipitation, MM = Missing Value Source: NWS Daily Summary

Daily Weather History Graph

Daily Weather History Graph

Search for Another Location

Airport or City:

Astronomy

Aug. 09, 2019 Rise Set
Actual Time 6:00 AM EDT 8:02 PM EDT
Civil Twilight 5:30 AM EDT 8:32 PM EDT
Nautical Twilight 4:53 AM EDT 9:08 PM EDT
Astronomical Twilight 4:13 AM EDT 9:48 PM EDT
Moon 3:41 PM EDT (8/9) 12:55 AM EDT (8/9)
Length of Visible Light 15h 01m
Length of Day
14h 01m
Waxing Gibbous, 70% of the Moon is Illuminated
Aug 9
Waxing Gibbous
Aug 15
Full
Aug 23
Last Quarter
Aug 30
New
Sep 5
First Quarter

Hourly Weather History & Observations

Time (EDT) Temp. Heat Index Dew Point Humidity Pressure Visibility Wind Dir Wind Speed Gust Speed Precip Events Conditions
12:56 AM 73.0 °F - 64.9 °F 76% 29.72 in 10.0 mi Calm Calm - N/A   Partly Cloudy
1:56 AM 73.0 °F - 64.9 °F 76% 29.73 in 10.0 mi West 4.6 mph - N/A   Partly Cloudy
2:56 AM 73.0 °F - 66.0 °F 79% 29.73 in 10.0 mi WSW 6.9 mph - N/A   Clear
3:56 AM 72.0 °F - 66.9 °F 84% 29.74 in 10.0 mi WSW 6.9 mph - N/A   Clear
4:56 AM 72.0 °F - 64.9 °F 78% 29.74 in 10.0 mi Variable 3.5 mph - N/A   Clear
5:56 AM 71.1 °F - 64.9 °F 81% 29.76 in 10.0 mi West 4.6 mph - N/A   Clear
6:56 AM 71.1 °F - 64.0 °F 78% 29.78 in 10.0 mi WSW 8.1 mph - N/A   Clear
7:56 AM 72.0 °F - 63.0 °F 73% 29.78 in 10.0 mi Variable 5.8 mph - N/A   Clear
8:56 AM 73.9 °F - 62.1 °F 66% 29.78 in 10.0 mi WSW 6.9 mph - N/A   Clear
9:56 AM 80.1 °F 81.2 °F 62.1 °F 54% 29.78 in 10.0 mi Variable 5.8 mph - N/A   Clear
10:56 AM 82.9 °F 83.2 °F 60.1 °F 46% 29.78 in 10.0 mi WSW 6.9 mph - N/A   Clear
11:56 AM 84.0 °F 84.5 °F 62.1 °F 47% 29.78 in 10.0 mi South 4.6 mph - N/A   Scattered Clouds
12:56 PM 84.9 °F 84.8 °F 60.1 °F 43% 29.76 in 10.0 mi West 9.2 mph - N/A   Mostly Cloudy
1:56 PM 84.0 °F 85.8 °F 64.9 °F 53% 29.76 in 10.0 mi Variable 3.5 mph - N/A   Partly Cloudy
2:56 PM 87.1 °F 88.3 °F 64.0 °F 46% 29.74 in 10.0 mi Variable 3.5 mph - N/A   Mostly Cloudy
3:56 PM 84.0 °F 85.4 °F 64.0 °F 51% 29.73 in 10.0 mi WSW 6.9 mph - N/A   Mostly Cloudy
4:56 PM 81.0 °F 82.5 °F 64.0 °F 56% 29.73 in 10.0 mi ENE 3.5 mph - N/A   Mostly Cloudy
5:56 PM 81.0 °F 82.7 °F 64.9 °F 58% 29.74 in 10.0 mi WSW 4.6 mph - N/A   Overcast
6:56 PM 80.1 °F 81.7 °F 64.0 °F 58% 29.75 in 10.0 mi Calm Calm - 0.00 in   Mostly Cloudy
7:56 PM 80.1 °F 80.6 °F 57.9 °F 47% 29.76 in 10.0 mi Calm Calm - N/A   Mostly Cloudy
8:56 PM 79.0 °F - 57.0 °F 47% 29.78 in 10.0 mi Calm Calm - N/A   Scattered Clouds
9:56 PM 78.1 °F - 57.0 °F 48% 29.80 in 10.0 mi Calm Calm - N/A   Clear
10:56 PM 77.0 °F - 62.1 °F 60% 29.80 in 10.0 mi Calm Calm - N/A   Clear
11:56 PM 75.9 °F - 55.0 °F 48% 29.81 in 10.0 mi Calm Calm - N/A   Clear